Terminal Aerodrome Forecast
Issued by NWS Cheyenne, WY

Home | Current Version | Previous Version | Text Only | Print | Product List | Glossary On
Versions: 1 2 3 4 5 6 7 8 9 10 11 12 13 14 15 16 17 18 19 20 21 22 23 24 25 26 27 28 29 30 31 32 33 34 35 36 37 38
000
FTUS45 KCYS 250500
TAFCYS
TAF
KCYS 250520Z 2506/2606 27015KT P6SM FEW150
     FM251000 31012KT P6SM FEW150
     FM251800 19011G18KT P6SM VCTS SCT100CB BKN150
     FM260100 22013KT P6SM SCT150=

USA.gov is the U.S. government's official web portal to all federal, state and local government web resources and services.